User: anonymous   Login
Location: Unspecified
(0.0000°N, 0.0000°E)
Time: 12:12:26
(UTC+02:00)
Language:

NATO 3D Rocket - Orbit

View from above orbital plane
View from above orbital plane
View from above satellite
View from above satellite

Ground track
Ground track

The orbit data is extracted from the following two-line orbital elements,

1 15392U 84115B   15149.17195983  .00000257  00000-0  10444-3 0  9992
2 15392 021.4910 138.2587 1034683 014.8521 058.8174 12.45497071390431
Epoch (UTC): 29 May 2015 04:07:37
Eccentricity: 0.1034683
inclination: 21.4910°
perigee height: 670 km
apogee height: 2297 km
right ascension of ascending node: 138.2587°
argument of perigee: 14.8521°
revolutions per day: 12.45497071
mean anomaly at epoch: 58.8174°
orbit number at epoch: 39043

The dashed part of the orbit path shows where the satellite is in the earth's shadow,  

DLR